Regional Weather Roundup
Issued by NWS

Home | Current Version | Previous Version | Text Only | Print | Product List | Glossary Off
Versions: 1 2 3 4 5 6 7 8 9 10 11 12 13 14 15 16 17 18 19 20 21 22 23 24 25 26 27 28 29 30 31 32 33 34 35 36 37 38 39 40 41 42 43 44 45 46 47 48 49 50

585
ASUS43 KLSX 240007
RWRMO

WEATHER SUMMARY FOR MISSOURI
NATIONAL WEATHER SERVICE SPRINGFIELD MO
700 PM CDT SAT SEP 23 2017

NOTE: "FAIR" INDICATES FEW OR NO CLOUDS BELOW 12,000 FEET WITH NO
       SIGNIFICANT WEATHER AND/OR OBSTRUCTIONS TO VISIBILITY.
       CURRENT SKY AND/OR WEATHER CONDITIONS ARE NOT AVAILABLE FOR
       CHILLICOTHE AND FARMINGTON.

MOZ001>031-035>038-043-044-053-054-240100-
...NORTHERN AND WESTERN MISSOURI...

CITY           SKY/WX    TMP DP  RH WIND       PRES   REMARKS
KANSAS CTY INT CLEAR     81  69  67 S8        29.95S
6HR MIN TEMP:  81; 6HR MAX TEMP:  88;

KANSAS C DTWN  CLEAR     88  67  49 SE10G17   29.94S HX  91
6HR MIN TEMP:  88; 6HR MAX TEMP:  92;

LEE`S SUMMIT   CLEAR     84  68  58 SE7       29.97S
6HR MIN TEMP:  84; 6HR MAX TEMP:  90;

ST JOSEPH      CLEAR     84  68  58 S7        29.94R
6HR MIN TEMP:  84; 6HR MAX TEMP:  92;

CHILLICOTHE      N/A     85  67  54 S5        29.96R
6HR MIN TEMP:  85; 6HR MAX TEMP:  92;

KIRKSVILLE     CLEAR     82  63  52 SE8       29.98S
6HR MIN TEMP:  81; 6HR MAX TEMP:  93;


$$
MOZ066>068-077>081-088>096-101>105-240100-
...SOUTHWEST MISSOURI...

CITY           SKY/WX    TMP DP  RH WIND       PRES   REMARKS
SPRINGFIELD    CLEAR     85  63  47 SE6       29.97S
6HR MIN TEMP:  84; 6HR MAX TEMP:  92;

JOPLIN         CLEAR     84  63  49 SE3       29.95F
6HR MIN TEMP:  84; 6HR MAX TEMP:  90;

BRANSON        PTCLDY    84  61  45 E6        29.99S

$$
MOZ032>034-039>042-045>050-055>058-069>072-240100-
...CENTRAL MISSOURI...

CITY           SKY/WX    TMP DP  RH WIND       PRES   REMARKS
COLUMBIA       CLEAR     85  67  54 E3        29.98S
6HR MIN TEMP:  85; 6HR MAX TEMP:  91;

JEFFERSON CITY CLEAR     85  65  51 E5        29.95S
6HR MIN TEMP:  85; 6HR MAX TEMP:  92;

ROLLA          PTCLDY    83  63  50 E6        30.00S
6HR MIN TEMP:  83; 6HR MAX TEMP:  93;

SEDALIA        CLEAR     83  68  60 SE5       29.98S
6HR MIN TEMP:  83; 6HR MAX TEMP:  93;

WHITEMAN AFB   PTCLDY    82  69  64 S5        29.95F
OSAGE BEACH    CLEAR     78  73  84 CALM      29.98S

$$
MOZ051-052-059>065-240100-
...EAST CENTRAL MISSOURI...

CITY           SKY/WX    TMP DP  RH WIND       PRES   REMARKS
ST LOUIS INTL  PTCLDY    85  62  46 E7        29.99S
6HR MIN TEMP:  85; 6HR MAX TEMP:  92;

SPIRIT OF STL  CLEAR     79  70  74 CALM      29.97S
6HR MIN TEMP:  79; 6HR MAX TEMP:  92;

ST CHARLES     CLEAR     84  62  47 E6        29.97F
6HR MIN TEMP:  84; 6HR MAX TEMP:  94;


$$
MOZ072>076-082>087-097>100-106>115-240100-
...SOUTH CENTRAL AND SOUTHEAST MISSOURI...

CITY           SKY/WX    TMP DP  RH WIND       PRES   REMARKS
CAPE GIRARDEAU CLEAR     83  65  54 E5        29.97S
6HR MIN TEMP:  83; 6HR MAX TEMP:  92;

FARMINGTON     CLEAR     81  65  58 E3        30.01S
6HR MIN TEMP:  81; 6HR MAX TEMP:  91;

POPLAR BLUFF   CLEAR     83  66  56 E6        29.96S
6HR MIN TEMP:  83; 6HR MAX TEMP:  93;

WEST PLAINS    CLEAR     84  62  47 SE3       30.00F
6HR MIN TEMP:  84; 6HR MAX TEMP:  91;


$$



USA.gov is the U.S. government's official web portal to all federal, state and local government web resources and services.